Location: Lecco
(45.8566°N, 9.3977°E)
Time: 03:32:16
(UTC+02:00)

Transit 4A - Pass Details

Date: 21 August 2020
Orbit: 863 x 982 km, 66.8° (Epoch: 23 September)

Event Time Altitude Azimuth Distance (km) Brightness Sun altitude
Rises 09:07:27 0° 233° (SW) 3,506 10.5 26.2°
Reaches altitude 10° 09:10:01 10° 239° (WSW) 2,586 9.9 26.6°
Maximum altitude 09:15:46 45° 312° (NW) 1,244 8.5 27.6°
Drops below altitude 10° 09:21:44 10° 25° (NNE) 2,680 10.5 28.6°
Sets 09:24:28 0° 31° (NNE) 3,645 11.2 29.1°
